Starlink 31523

operational
NORAD ID: 59220 Int'l Des: 2024-046 Owner: SPXS Country: US Constellation: starlink
LEOCIRCULAR

Über Starlink 31523

Beschreibung wird geladen...

Live-Position

3D-Globus wird geladen...

Nächste Überflüge

Höhenverlauf

Altitude vs Time

uPlot chart will show altitude changes over time

Zweizeiliger Elementsatz

1 59220U 24046V 25349.91902596 -.00001964 00000-0 -54206-4 0 9991
2 59220 53.1596 184.4579 0001286 127.0300 233.0818 15.30191636100211
Epoch: 15. Dez. 2025 • Age: 22 hours

Aktueller Status

Höhe 481.0 km
Geschwindigkeit 7.63 km/s
Subsatellitenpunkt 51.97°N, 138.51°W
Startdatum 11. März 2024
Alter 1.7 years
Typ internet

Technische Details

Klassifizierung Payload
Masse 730.00 kg
Trockenmasse 700.00 kg
Gesamtmasse 730.00 kg
Länge 0.30 m
Durchmesser 4.10 m
Spannweite 29.00 m
Form Box + pan
Hersteller SPXS
Bus-Typ Starlink V2M
Phasenstatus In Orbit
Besitzer/Staat SPXS/US

Große Konstellationen

Loading constellations...